Tracking 18795 objects as of 21-August-2017
HD Live streaming from Space Station
objects crossing your sky now

ATHENA-FIDUS

Track ATHENA-FIDUS now!
ATHENA-FIDUS is classified as:


NORAD ID: 39509
Int'l Code: 2014-006B
Perigee: 35,789.3 km
Apogee: 35,799.5 km
Inclination: 0.0 °
Period: 1,436.1 minutes
Semi major axis: 42165 km
RCS: Unknown
Launch date: February 6, 2014
Source: FRANCE/ITALY (FRIT)
Launch site: FRENCH GUIANA (FRGUI)

ATHENA-FIDUS is a military geostationary satellite featuring EHF and Ka-band transponders.
Your satellite tracking list
Your tracking list is empty





NASA's NSSDC Master Catalog

Two Line Element Set (TLE):
1 39509U 14006B   17231.98248727 +.00000124 +00000-0 +00000-0 0  9995
2 39509 000.0137 132.0986 0001207 028.6827 199.2232 01.00269315012762
Source of the keplerian elements: AFSPC